Theta_e
304 304 304 303 304 303 304 304 303 304 303 304 304 304 304 304 304 304 304 304 304 304 303 303 303 304 304 304 305 305 305 306 305 306 305 304 303 304 304 304 304 304 305 304 304 306 306 307 307 306 308 309 308 310 311 311 312 316 320 321 322 322 321 320 319 317 315 314 312 307 307 311 309 307 307 308 311 310 310 310 310 311 311 312 310 308 306 304
304 304 304 304 303 303 303 303 303 303 304 304 304 304 304 304 304 304 305 304 304 304 303 303 303 304 303 304 305 305 305 306 306 306 304 303 304 304 304 304 305 304 305 305 305 306 306 307 307 306 308 309 307 308 310 309 311 316 319 319 319 319 317 314 314 314 313 312 310 305 305 307 305 303 305 308 312 311 312 311 311 311 309 309 308 307 306 304
304 304 303 303 303 303 303 303 304 304 304 304 304 304 304 304 304 304 304 305 305 304 304 303 303 303 303 303 304 305 305 306 306 305 304 303 304 304 305 305 305 304 304 305 304 305 306 306 307 306 308 309 307 308 311 310 311 314 315 317 317 315 313 307 305 308 309 309 309 305 303 303 300 299 304 309 310 310 310 309 310 312 309 307 307 306 306 306
303 303 303 303 303 303 304 304 304 304 304 305 305 306 306 306 305 305 304 304 304 305 304 303 303 303 303 303 304 305 305 307 306 304 304 304 304 304 305 305 305 304 304 305 304 305 306 305 305 306 307 308 307 307 310 310 310 313 313 314 313 311 311 303 300 303 304 307 307 305 304 302 298 298 303 308 311 310 306 301 301 304 305 305 303 303 304 304
303 303 303 302 303 303 304 304 304 304 305 306 306 306 306 306 306 305 305 304 304 305 304 303 303 303 303 303 304 306 306 308 306 303 304 304 304 305 305 305 305 304 304 304 304 304 305 305 305 305 307 308 307 308 309 307 308 312 309 306 305 307 309 302 298 300 301 305 306 304 305 301 298 297 298 303 308 307 300 295 294 296 300 301 300 300 301 300
303 303 303 303 303 304 304 304 304 304 305 306 306 306 306 307 306 305 305 305 304 304 304 303 303 303 305 306 306 306 307 308 305 303 304 304 305 305 305 305 304 304 304 304 304 304 304 305 305 306 306 306 307 307 307 304 306 311 307 302 300 302 304 300 298 299 300 305 304 302 301 298 299 298 294 296 298 296 293 292 293 295 296 297 297 298 299 299
303 303 303 303 303 303 304 304 304 304 305 306 306 306 306 307 307 305 304 305 304 304 304 303 304 304 307 307 306 307 307 306 303 303 304 304 305 305 305 304 304 304 304 304 304 304 304 304 305 306 306 306 306 306 305 304 305 309 307 301 299 299 299 298 298 298 300 301 300 299 299 298 300 299 295 293 292 291 291 292 293 295 294 295 296 296 296 296
303 303 303 303 303 304 304 304 304 304 305 306 306 307 307 307 307 305 304 304 304 304 303 303 304 306 307 307 307 307 305 304 303 303 304 304 305 305 305 304 304 304 303 304 304 304 304 304 305 304 307 306 304 305 305 305 306 308 305 301 299 299 298 298 298 298 298 298 298 298 297 296 296 297 295 292 291 290 291 293 293 294 294 294 295 295 294 294
303 303 303 303 303 304 304 304 304 304 305 306 307 307 307 306 306 305 304 304 304 304 303 304 305 306 307 307 308 308 304 303 303 303 304 305 304 304 304 304 304 304 304 303 302 304 304 304 304 304 306 305 304 306 305 306 307 306 303 301 300 299 298 299 299 298 298 298 299 299 296 295 294 295 295 291 290 290 291 293 293 294 293 293 293 293 293 293
304 303 303 303 304 304 304 304 304 304 305 306 307 307 306 306 305 304 304 304 304 303 304 305 307 307 308 307 308 307 303 302 303 304 305 304 304 304 304 304 304 304 304 303 303 304 304 304 303 303 305 304 305 306 305 307 306 302 301 300 300 300 299 299 299 298 299 298 298 300 298 296 293 296 298 292 289 290 291 292 292 293 292 291 292 292 292 292
304 304 304 304 304 304 304 304 304 304 305 307 307 306 306 305 304 304 304 304 304 305 306 307 307 306 306 306 307 305 303 303 303 304 304 304 304 304 304 304 304 303 304 304 303 303 303 303 302 303 306 305 306 306 304 304 302 300 301 301 300 300 300 299 299 298 299 298 297 299 298 296 295 297 297 291 290 290 291 293 292 292 291 290 291 291 291 290
304 304 304 304 304 304 304 304 304 305 306 307 307 306 306 305 304 304 303 304 305 306 306 306 306 306 307 306 305 304 303 303 303 304 304 304 304 304 304 304 304 304 304 305 304 302 302 302 302 304 305 305 306 307 305 302 301 301 303 304 302 302 302 299 299 298 299 299 297 298 300 300 299 296 292 289 290 290 291 293 292 291 290 290 290 290 290 290
304 304 304 304 304 304 303 304 304 305 307 307 307 307 307 306 305 304 304 305 306 306 305 306 306 307 307 306 303 303 303 303 303 305 304 304 304 304 304 304 303 304 304 304 303 302 302 302 304 305 304 305 306 305 304 301 301 302 304 305 304 305 304 300 298 298 299 298 295 297 304 306 299 293 290 289 290 291 292 293 292 291 290 290 289 289 290 289
303 304 304 304 304 303 303 303 304 306 307 307 307 307 308 308 307 305 305 305 305 305 305 305 305 306 307 305 303 303 303 302 303 304 304 304 304 304 303 303 304 304 304 304 303 304 303 303 305 306 304 305 304 303 305 304 303 304 306 306 306 307 305 300 298 299 300 298 295 298 305 306 298 293 291 289 290 291 293 294 293 292 290 290 289 289 289 289
302 303 303 304 304 303 303 303 304 307 308 307 308 308 309 309 308 308 307 306 306 306 306 306 305 306 307 304 303 303 303 303 302 302 303 304 304 305 304 303 304 304 304 304 303 304 304 304 305 305 304 303 304 306 307 306 305 305 307 308 307 307 306 301 298 298 300 298 297 300 304 305 299 294 291 289 290 291 293 294 293 292 291 290 290 289 289 289
302 302 303 303 303 303 303 303 306 307 307 308 308 308 307 307 307 307 307 307 307 307 307 307 305 306 307 304 303 304 303 303 302 301 302 303 303 304 303 303 304 304 304 304 304 304 304 304 303 303 304 303 305 308 308 307 307 306 306 307 306 306 306 304 300 298 298 298 299 300 303 304 300 294 292 290 290 290 292 293 292 292 291 290 290 289 289 289
302 302 302 303 303 303 303 304 306 307 307 307 306 306 306 306 307 306 306 306 306 306 306 306 305 306 307 304 303 303 302 302 301 301 302 303 303 303 304 304 304 303 304 304 304 304 304 304 302 303 304 304 305 308 308 308 307 306 305 305 305 304 304 305 303 299 298 300 301 300 301 303 299 294 292 290 290 290 291 293 292 292 291 290 290 289 289 289
303 302 303 302 303 303 302 304 306 306 306 306 306 306 306 306 306 306 307 306 307 306 306 305 305 307 307 304 303 303 302 302 301 301 302 303 303 303 303 304 303 304 305 305 304 304 304 305 305 305 305 304 304 306 307 306 306 305 304 304 304 304 304 305 305 301 299 301 303 301 302 302 299 294 292 291 290 290 291 292 292 292 291 290 290 289 289 289
302 303 303 303 303 303 303 303 305 306 306 306 306 306 306 306 306 305 305 306 308 308 307 306 305 306 306 303 302 302 302 301 300 301 301 302 303 302 302 302 303 305 307 306 304 303 304 306 306 306 305 304 303 303 305 305 305 305 304 304 304 304 304 304 303 299 298 301 302 302 302 302 300 296 293 291 290 290 291 292 292 291 291 290 289 289 289 289
302 302 302 303 303 303 303 303 304 306 306 306 306 307 307 309 309 307 305 305 305 304 306 306 303 304 304 302 302 301 301 301 301 301 300 301 302 302 302 301 304 305 305 307 305 302 304 306 305 304 303 302 300 299 300 300 302 305 304 304 303 303 303 303 302 298 296 300 302 301 300 300 300 299 295 292 290 290 291 292 292 291 291 290 290 290 290 290
302 302 302 303 303 303 303 303 304 305 306 306 307 308 309 311 310 306 305 305 302 300 303 304 302 302 302 301 301 300 300 301 301 301 300 301 302 302 302 302 306 305 302 303 304 302 304 305 303 301 300 299 298 297 298 300 302 304 304 303 303 302 302 302 300 298 296 300 301 299 298 300 301 299 295 292 291 291 291 292 292 292 291 291 291 291 290 290
302 302 302 303 304 304 303 304 304 304 306 305 306 308 308 308 306 305 306 307 303 301 302 302 301 301 301 301 300 299 300 300 301 301 300 301 303 303 302 302 305 304 301 302 304 304 304 303 301 298 297 297 297 297 299 301 302 302 302 302 302 301 301 301 300 298 297 299 301 300 299 301 301 298 295 293 292 292 292 292 292 292 292 292 291 291 291 290
301 301 303 304 303 304 304 304 303 304 306 306 306 307 307 306 305 306 308 308 305 303 304 303 302 301 302 301 300 300 300 299 300 300 299 301 302 302 303 302 302 302 302 304 304 304 303 301 298 297 297 299 299 299 300 302 302 301 300 300 300 300 300 300 300 299 298 298 300 299 299 301 300 298 296 294 293 293 292 292 292 292 292 292 292 291 291 290
302 303 304 304 303 304 305 304 303 305 307 307 307 307 306 306 305 306 307 307 306 304 303 302 301 301 301 300 300 300 300 299 299 299 298 300 301 301 302 302 302 302 301 303 304 303 302 299 296 296 299 299 300 301 301 301 301 300 299 299 299 299 299 299 299 299 299 298 298 299 300 302 301 299 299 296 293 293 292 291 291 291 291 292 292 291 291 291
303 304 305 303 304 305 305 304 304 305 307 307 307 306 306 306 306 306 307 307 306 305 303 302 301 301 300 300 300 300 300 299 298 298 298 298 299 301 301 300 301 302 301 302 303 302 300 297 295 298 299 299 300 301 299 300 300 300 299 298 298 298 298 298 299 300 301 300 299 299 300 301 302 301 301 298 294 294 293 292 292 292 292 291 291 291 290 290
304 306 305 303 304 305 306 306 303 303 307 307 306 306 306 307 307 306 308 309 306 305 305 304 303 302 301 300 299 299 302 301 298 298 298 297 298 300 302 301 301 302 301 302 302 301 300 297 297 298 299 300 301 300 298 299 299 299 298 297 297 297 297 299 300 300 301 300 299 298 300 300 301 301 301 299 296 296 295 294 293 294 293 292 291 291 291 290
305 306 305 304 304 305 307 309 304 303 309 308 306 307 306 308 308 305 308 310 306 304 305 306 303 302 302 300 298 300 302 301 298 298 297 297 297 299 302 302 302 303 300 301 302 302 301 299 298 299 300 301 301 299 298 298 299 299 296 295 297 297 299 300 301 301 301 300 299 299 299 299 301 301 299 297 298 298 298 297 296 295 294 293 293 292 292 291
305 306 305 304 304 305 305 307 305 304 307 307 305 307 307 308 308 308 310 308 305 304 304 305 303 301 301 300 299 301 301 299 300 300 297 296 297 300 303 302 302 302 299 300 302 301 300 301 300 299 300 301 299 299 298 297 299 298 295 295 297 298 299 299 300 301 299 299 300 300 299 299 300 301 298 296 298 299 300 300 299 298 296 295 294 294 293 292
305 306 306 305 304 304 304 305 305 304 305 305 306 307 307 306 308 310 310 306 303 304 303 303 302 301 301 301 301 301 300 299 300 299 297 297 298 300 301 300 300 301 299 301 303 301 299 300 299 298 299 300 299 298 297 297 298 297 295 295 296 296 297 298 300 300 298 298 299 299 298 298 299 300 300 298 298 299 300 301 302 301 299 297 296 295 294 293
306 306 306 305 304 304 303 303 303 303 304 305 306 306 306 307 309 310 308 303 303 304 303 303 303 300 301 303 302 301 300 299 298 298 299 299 299 299 297 297 299 301 300 301 301 299 298 298 298 298 298 298 297 297 296 296 297 295 295 296 296 296 296 297 298 298 298 298 298 298 298 298 297 299 300 299 300 301 301 301 302 301 300 298 298 296 295 294
306 306 307 306 304 304 304 304 303 303 304 304 305 306 306 308 310 309 305 302 303 304 303 303 302 300 300 302 302 301 301 300 298 299 300 300 300 301 299 298 300 300 300 300 299 298 297 299 300 298 297 296 296 297 296 295 295 295 296 297 297 297 296 297 297 296 297 298 297 296 296 297 297 299 300 299 300 300 301 301 301 302 301 300 298 297 296 294
306 306 306 306 305 303 304 305 303 302 304 304 306 309 308 308 307 305 304 303 303 304 302 302 302 300 299 300 300 299 300 300 299 298 298 298 299 298 298 299 298 299 300 299 298 298 298 298 297 296 296 295 296 299 297 296 297 297 297 297 297 296 296 297 297 296 297 297 295 294 294 295 297 299 300 299 299 299 300 301 302 302 302 300 298 296 295 294
305 305 305 304 304 303 303 304 303 303 304 304 307 311 311 310 305 302 303 303 302 300 300 301 300 298 298 300 300 298 298 299 299 299 297 298 299 297 296 296 295 298 299 298 298 299 299 298 296 297 297 295 296 299 298 298 298 297 297 297 296 295 295 296 296 296 297 296 293 292 292 294 297 298 299 298 298 298 297 298 299 300 299 298 297 295 294 294
304 305 304 303 303 303 304 304 303 304 305 305 309 310 308 307 303 301 303 301 299 299 300 299 298 298 298 299 298 297 299 298 297 299 299 298 299 298 297 297 296 296 297 297 297 297 299 298 297 298 297 296 297 297 297 297 297 296 295 296 296 295 295 296 296 297 298 296 294 292 293 296 299 298 297 297 297 296 295 295 295 295 296 295 295 294 294 294
304 304 305 304 304 304 303 303 304 306 305 307 313 312 308 306 302 301 303 300 298 300 300 296 296 298 298 297 296 295 297 298 296 298 299 298 299 298 298 298 297 295 297 298 296 295 298 298 296 295 294 295 296 296 295 296 297 296 294 295 296 295 295 295 294 294 294 295 294 293 295 297 298 297 296 296 295 294 294 294 294 294 295 294 294 295 295 295
304 303 305 304 304 305 304 305 306 305 305 311 317 312 308 306 301 300 303 301 300 301 300 299 298 298 299 298 297 296 296 297 297 297 298 298 298 297 297 296 296 295 296 297 296 296 298 297 295 295 295 294 294 295 294 295 297 296 294 295 294 293 295 296 293 291 290 293 295 294 296 297 297 297 296 295 295 295 294 294 294 295 295 295 295 296 296 296
305 302 302 302 304 306 305 306 306 304 308 317 319 309 302 300 297 298 300 299 299 298 299 302 299 298 300 299 298 299 297 296 297 298 298 298 298 297 296 296 294 294 295 295 296 295 296 298 296 295 297 294 291 293 294 292 294 296 296 295 293 292 293 295 295 293 292 294 295 294 295 296 295 297 297 296 296 297 296 295 294 295 295 295 295 296 297 296
305 303 303 301 302 304 305 306 303 304 313 319 315 305 299 299 297 297 298 298 298 297 298 301 300 297 299 300 299 299 299 299 298 298 298 298 298 297 296 296 294 294 294 294 296 294 294 298 297 293 295 294 291 294 296 293 292 294 295 293 293 294 294 294 294 294 294 294 295 295 295 296 295 296 297 297 296 296 296 296 296 295 295 295 295 296 296 296
304 307 308 302 300 302 304 304 302 308 317 315 310 304 299 299 298 296 297 297 297 298 298 300 299 297 297 298 299 298 298 299 298 297 297 297 298 297 295 296 295 294 293 293 296 295 293 297 297 294 293 294 294 296 297 296 293 292 293 293 292 293 294 293 292 292 293 294 295 295 295 297 297 296 296 296 296 296 296 296 296 297 297 296 296 296 297 297
304 311 310 301 301 303 301 301 307 316 317 309 304 302 299 299 298 295 294 296 297 297 299 299 298 298 298 297 297 298 297 298 297 297 297 296 297 297 295 295 295 294 293 292 294 295 294 295 297 296 293 294 296 297 297 298 296 294 295 295 293 291 291 292 291 291 293 294 294 294 295 297 298 296 295 296 296 296 295 294 295 296 296 296 296 296 297 297
305 315 311 300 301 303 302 306 308 308 307 302 300 300 299 300 299 296 293 295 297 297 296 298 297 298 299 297 297 298 298 298 297 297 298 297 297 298 296 295 295 294 294 294 295 295 295 295 296 296 296 297 297 294 293 294 295 296 297 297 296 294 292 294 294 290 290 292 293 293 294 297 297 295 295 296 296 296 294 294 294 295 295 295 295 295 296 296
309 314 306 300 302 302 307 310 301 298 301 301 300 300 300 301 300 297 296 295 297 297 295 296 297 297 298 298 297 297 298 299 298 298 298 297 297 296 295 295 295 294 295 296 295 293 294 295 296 297 297 297 294 290 289 291 292 294 295 295 295 295 294 297 296 293 290 290 291 290 292 296 296 295 295 295 295 294 293 292 293 294 295 295 295 294 294 294
315 312 301 299 301 302 309 311 301 299 302 299 298 298 298 299 299 297 297 297 297 297 296 297 297 297 297 297 297 297 298 299 298 298 298 296 296 295 295 294 294 294 295 295 294 293 294 295 296 297 297 294 290 289 289 290 291 294 294 292 293 295 296 296 294 292 292 292 292 291 292 296 296 295 295 294 293 292 292 291 292 293 294 295 295 294 294 293
312 306 301 301 299 303 312 314 308 303 299 297 298 298 297 297 297 297 297 298 298 297 298 299 297 297 297 296 297 298 298 298 298 297 297 297 296 294 292 292 293 294 294 294 295 294 295 296 295 296 298 296 294 294 293 292 292 295 295 292 292 295 295 293 291 291 292 295 295 294 295 297 295 294 293 293 293 293 294 293 292 293 294 294 295 294 294 293
306 303 304 303 298 301 307 307 307 305 300 299 299 298 298 298 298 299 298 298 297 296 298 298 296 296 296 295 298 297 296 297 297 296 295 295 295 293 290 289 290 293 293 293 295 294 294 296 295 296 298 297 298 299 297 295 294 294 294 292 291 294 294 294 293 293 294 295 295 294 296 298 296 296 295 295 295 295 295 296 295 294 293 293 294 294 293 293
308 308 308 306 301 300 300 297 301 304 301 302 302 298 299 300 298 297 298 298 297 295 297 297 295 296 296 297 299 298 297 296 295 295 296 297 296 293 288 287 289 291 292 293 294 294 293 293 294 296 297 298 299 299 295 294 294 294 295 295 293 292 293 294 294 294 295 294 294 295 296 297 297 296 297 296 296 296 296 296 296 295 294 293 293 293 293 292
310 312 308 305 304 303 301 298 300 301 300 302 303 299 299 300 299 297 297 296 296 295 296 296 296 297 297 298 300 300 298 296 295 296 297 297 296 291 286 286 289 290 291 293 292 292 294 295 294 296 297 297 298 297 294 293 294 294 296 297 295 292 292 294 294 295 295 294 295 296 295 295 296 296 296 296 296 296 296 296 296 295 295 294 293 293 293 292
304 306 301 300 305 306 304 302 302 302 300 300 300 298 299 301 300 301 299 296 295 296 297 298 297 297 297 297 299 300 297 296 298 299 298 297 296 293 291 290 291 291 292 291 290 291 294 295 295 295 296 295 294 294 294 293 293 293 294 295 295 293 292 294 295 295 294 294 296 296 295 295 296 296 296 296 296 296 296 295 295 295 294 294 294 293 293 293
301 303 298 296 303 303 299 298 301 304 304 302 301 299 300 302 302 300 298 296 298 297 297 300 300 297 296 296 297 299 298 298 299 300 300 299 297 296 296 295 293 292 292 292 291 291 293 296 295 293 294 294 293 294 293 293 293 293 293 294 294 293 293 294 295 294 294 294 295 295 295 295 295 296 296 296 296 295 295 294 294 294 294 294 293 293 293 293
306 308 303 300 301 298 296 296 299 305 303 300 301 300 299 302 302 299 298 299 301 299 296 298 299 297 296 295 296 299 299 298 297 298 298 299 297 297 298 297 296 292 292 293 292 290 292 296 296 292 293 295 294 292 292 292 292 292 292 293 293 293 293 293 293 293 293 294 294 294 294 294 294 295 295 295 295 294 294 294 294 294 294 293 293 293 293 293
301 302 302 307 306 298 298 298 296 302 302 299 301 300 299 302 301 299 299 298 300 300 297 297 299 297 295 295 295 298 297 296 296 296 296 296 296 296 296 295 296 296 294 292 292 290 290 293 293 291 294 297 293 290 291 292 292 293 295 295 294 294 293 293 293 293 293 294 294 293 293 294 295 295 295 294 294 294 294 294 294 294 294 293 293 293 293 293
298 297 299 309 309 297 297 298 296 300 303 301 301 301 301 302 298 298 302 299 296 298 296 296 298 297 297 299 298 298 297 295 295 294 293 293 293 293 293 292 294 298 296 292 291 289 289 292 292 291 296 297 291 290 293 293 296 299 299 298 297 296 294 293 292 292 292 293 294 294 294 295 296 295 295 295 295 294 294 294 294 294 294 293 293 293 293 292
Wind_Speed
5 5 4 4 3 2 2 2 2 3 3 4 4 4 5 5 5 5 4 4 4 4 5 4 3 3 4 4 8 12 12 12 13 14 11 9 11 12 15 18 19 15 10 9 7 2 3 2 1 3 5 3 0 1 2 1 1 3 4 4 5 5 3 2 3 2 1 1 7 6 2 5 8 5 5 4 8 9 9 9 8 9 10 13 18 23 24 23
5 5 4 4 3 2 2 2 3 3 4 4 5 5 6 6 6 5 5 4 4 4 4 4 3 4 4 5 11 13 8 8 11 14 11 11 12 12 16 18 19 15 9 8 6 2 2 3 2 3 4 2 0 1 2 0 1 3 2 4 6 3 0 2 2 2 2 1 8 5 1 4 5 4 2 3 6 8 9 9 8 11 12 15 19 21 22 22
5 5 4 4 3 3 3 3 3 4 4 4 4 5 5 5 5 6 5 5 5 4 4 3 3 4 4 5 11 13 4 3 5 8 10 14 14 14 17 19 20 15 7 7 6 3 2 2 3 4 4 2 1 1 3 1 2 2 2 6 3 1 2 5 6 4 3 1 8 6 4 6 4 1 1 6 9 6 7 6 7 10 10 12 14 17 19 17
5 4 4 4 5 6 5 4 5 6 6 4 3 3 3 2 2 3 5 6 5 5 4 3 3 3 4 5 9 11 5 1 2 5 11 17 16 16 18 19 20 13 5 6 5 2 1 2 3 3 3 3 1 2 4 1 0 2 2 4 2 2 1 5 6 4 3 0 6 8 7 7 4 2 1 7 7 4 4 3 3 4 6 8 8 9 11 13
5 5 5 6 7 8 6 5 6 8 6 4 4 4 3 3 2 1 4 6 7 6 4 3 4 3 4 5 6 9 6 3 3 8 15 19 18 17 18 20 17 8 4 6 3 1 1 3 2 2 2 3 3 3 3 2 1 2 1 3 6 3 1 6 6 4 2 3 7 7 7 5 3 4 5 1 1 2 3 2 3 2 2 5 5 6 9 12
5 5 6 7 9 10 7 6 7 8 5 4 4 4 4 3 2 1 1 5 7 6 5 5 4 3 3 4 7 7 4 1 6 13 19 22 19 18 19 16 10 5 5 4 1 1 1 2 3 3 2 2 4 3 2 3 1 2 2 5 7 4 3 5 5 4 1 5 7 5 6 6 6 5 6 5 4 4 3 3 2 2 3 5 6 7 9 11
5 6 7 8 9 10 9 7 7 7 5 3 4 4 4 3 2 1 0 4 7 6 6 6 5 6 8 10 10 6 2 3 9 16 23 23 19 17 14 9 5 4 4 2 1 2 2 2 3 3 3 2 3 3 2 2 1 3 2 5 6 7 6 5 5 4 5 7 7 5 6 5 4 4 4 6 6 4 3 3 2 5 6 6 7 7 8 9
5 6 7 8 8 8 8 8 7 7 5 4 4 5 5 3 2 1 1 4 7 6 7 7 9 12 12 11 7 4 4 5 12 20 24 21 15 11 7 5 5 3 3 3 1 2 2 2 2 3 2 1 2 3 1 2 2 0 3 5 4 7 7 6 7 8 10 9 7 8 8 6 4 4 5 5 4 4 3 3 5 6 7 6 7 7 8 8
5 6 7 7 8 8 8 8 8 7 6 5 6 6 5 4 2 2 3 6 7 7 7 8 10 11 7 4 2 1 4 7 14 21 22 16 10 7 5 4 4 3 3 6 4 1 2 1 2 3 2 2 2 3 0 2 1 3 5 6 7 7 6 6 8 8 8 5 3 7 7 5 4 3 4 4 3 3 2 4 5 6 7 5 5 6 7 7
4 5 6 7 7 8 8 8 8 8 7 7 7 6 5 4 4 4 6 8 8 7 6 7 8 7 4 2 1 2 5 9 14 20 16 9 7 4 4 5 5 4 3 6 5 3 1 1 2 2 2 3 2 2 2 2 3 8 10 10 9 8 6 4 6 6 4 4 2 3 6 3 2 2 1 3 2 2 4 5 5 5 6 4 5 5 5 6
3 5 5 6 6 7 7 7 8 7 7 7 6 5 6 5 5 6 8 9 8 9 10 11 13 12 11 7 5 4 7 10 16 18 10 7 7 5 6 7 6 5 4 6 6 6 4 3 4 2 0 2 3 4 4 2 7 12 12 11 9 8 8 5 4 3 0 3 4 4 6 3 3 2 1 4 3 3 5 6 5 4 4 4 5 4 4 5
3 3 4 5 6 7 7 7 7 6 6 6 5 6 7 7 7 8 9 10 14 17 15 13 12 11 13 12 7 4 7 11 16 14 8 7 10 9 7 7 8 7 4 4 6 6 4 4 3 3 2 1 3 4 5 4 6 8 5 6 6 5 7 7 3 3 1 3 2 1 2 4 5 2 3 5 4 5 5 6 6 5 4 4 4 4 5 5
2 3 4 5 5 6 6 6 6 6 6 6 6 7 8 8 8 9 9 11 17 16 9 5 4 3 6 7 4 4 8 13 16 12 8 8 9 9 8 7 8 9 8 8 7 6 6 4 4 6 4 1 2 2 5 4 2 3 1 1 4 5 3 8 4 1 1 3 1 3 3 3 6 4 5 5 5 7 7 7 6 5 5 4 4 4 5 6
2 3 3 3 4 5 5 5 4 5 5 5 6 8 8 9 9 9 10 12 15 8 6 8 8 7 7 4 3 5 11 14 18 17 13 10 7 6 8 8 9 11 12 12 11 10 9 8 9 8 3 4 3 2 5 4 1 1 0 1 2 3 1 6 5 3 1 3 2 4 5 1 5 6 7 6 6 8 8 8 7 6 6 5 5 5 5 7
3 3 3 3 4 4 5 4 3 4 5 6 7 8 9 10 10 10 10 11 11 6 5 8 7 7 7 4 2 6 13 16 21 21 16 12 9 5 5 8 10 12 13 12 11 11 10 7 7 5 2 1 1 3 4 3 1 1 2 3 1 2 1 4 5 5 2 1 2 3 5 2 4 7 9 8 7 8 8 9 8 8 7 7 6 6 6 7
5 4 3 3 3 4 5 4 4 5 5 7 8 9 10 11 12 13 12 11 9 6 4 4 3 4 4 2 1 6 10 13 18 21 15 11 12 7 2 6 8 9 11 11 8 8 10 9 4 2 1 1 1 2 3 3 2 1 2 1 1 1 1 2 4 5 4 1 2 3 5 4 3 7 9 9 8 9 8 9 9 8 8 8 7 6 6 7
7 6 5 4 4 4 4 5 8 10 10 11 12 11 10 8 7 9 10 11 11 9 8 7 5 5 4 4 3 5 8 11 16 21 17 9 11 9 3 4 3 2 5 8 8 6 8 7 1 0 3 3 1 2 3 3 2 1 1 0 1 1 2 1 3 3 5 2 2 2 5 5 2 6 9 10 9 9 9 10 10 9 8 8 7 7 7 8
7 7 6 5 4 3 3 6 11 15 17 19 20 19 18 15 10 8 7 6 5 5 8 10 7 3 4 6 4 8 11 11 14 21 19 10 7 11 8 4 1 4 3 1 7 7 4 3 0 1 3 4 4 1 2 1 1 1 2 2 0 1 2 2 1 4 7 4 4 3 6 6 3 7 9 9 9 9 10 10 9 9 9 8 8 8 8 9
5 7 8 6 4 3 3 5 11 14 16 16 15 14 13 15 16 17 19 14 5 2 3 6 6 1 2 5 6 11 9 6 11 17 21 14 5 7 10 8 3 3 1 1 4 6 2 1 1 2 4 5 5 4 3 4 3 2 2 2 2 2 1 1 2 5 6 5 5 4 5 7 5 6 9 10 9 9 10 10 9 9 9 9 9 9 9 10
4 5 7 7 5 2 2 4 9 13 12 10 6 2 2 4 6 9 16 16 7 3 2 2 3 1 2 3 9 13 4 1 8 16 22 18 6 2 7 6 2 4 4 1 3 4 2 3 4 3 4 4 5 4 3 2 3 1 0 1 1 3 2 1 2 3 3 4 3 3 5 11 11 6 9 10 9 10 12 12 11 10 10 10 10 11 11 11
4 5 6 7 5 2 2 4 7 13 13 10 5 1 1 1 1 2 3 6 4 4 4 2 1 2 2 2 9 11 3 1 5 17 26 18 5 2 5 5 0 3 4 2 2 2 1 4 5 4 4 4 5 3 2 1 1 1 1 1 1 2 3 1 2 2 2 3 2 1 6 14 12 5 9 11 11 13 14 14 13 13 12 10 11 13 12 11
5 5 5 6 4 2 4 4 5 10 13 11 6 0 1 2 6 9 6 5 3 4 4 2 2 4 1 2 10 10 2 2 6 16 27 19 7 3 4 4 3 3 2 2 2 1 3 5 3 4 2 2 1 1 1 2 1 1 0 2 1 2 5 1 3 1 1 3 4 3 7 14 9 4 9 12 12 12 12 13 13 13 13 12 12 13 12 11
5 5 6 7 3 3 5 4 4 7 10 10 6 3 5 10 13 11 6 5 3 2 3 3 4 5 3 4 12 11 4 5 5 12 23 16 7 4 3 5 6 4 4 3 0 2 3 4 4 4 1 2 2 3 1 2 2 1 2 2 2 3 4 1 2 0 1 2 5 6 8 11 6 4 7 11 11 9 9 12 12 12 13 13 13 12 12 13
6 7 8 7 2 4 5 5 4 6 8 9 8 9 12 14 13 9 5 3 3 1 1 2 1 4 4 4 11 8 5 5 3 9 19 13 4 2 2 4 5 5 6 6 6 7 5 4 3 1 2 1 1 4 3 1 1 2 3 3 3 4 4 4 3 5 3 3 3 7 8 6 3 3 5 6 8 10 9 11 12 13 13 13 13 13 14 14
8 9 9 5 2 4 6 6 5 7 9 9 11 14 15 13 10 6 3 1 2 1 0 1 1 3 3 5 11 5 3 3 3 6 12 10 4 2 2 1 2 4 2 4 7 8 6 3 1 1 3 1 1 4 5 4 1 1 1 2 3 5 6 7 6 6 4 2 1 5 6 1 3 4 5 4 6 10 10 11 15 14 13 13 13 14 14 14
10 11 9 4 2 4 6 4 5 9 8 7 12 16 14 10 7 4 1 1 2 2 3 0 1 5 4 6 9 2 3 2 3 6 9 8 5 1 2 0 1 3 1 1 4 3 3 2 1 1 3 2 2 3 3 4 4 1 2 1 3 5 6 6 4 3 4 3 2 3 5 4 3 5 4 3 5 8 9 12 15 14 13 14 14 14 13 14
10 11 9 5 3 3 3 3 7 8 3 6 13 15 12 8 5 2 1 0 1 1 3 3 2 5 5 6 8 1 0 4 3 4 9 9 5 1 1 1 1 3 1 0 1 2 1 2 2 2 1 1 2 3 2 2 4 1 2 1 4 4 4 3 3 3 3 4 1 1 2 5 6 3 2 2 5 8 9 13 14 13 14 16 15 15 15 15
11 10 8 6 4 3 3 6 9 5 3 10 15 13 10 7 3 1 1 0 1 1 1 2 2 4 4 5 8 4 1 5 3 4 8 9 6 1 2 4 1 3 2 3 0 2 1 3 4 2 1 2 1 2 1 2 3 2 2 2 3 1 1 1 2 2 1 4 2 2 1 4 6 2 3 1 5 9 11 12 13 14 15 16 16 16 16 16
10 9 7 4 5 6 5 7 7 6 9 14 13 11 8 4 2 1 0 1 0 1 1 2 2 4 4 3 5 6 2 3 3 5 8 7 8 5 4 4 2 5 2 2 2 3 1 2 3 2 2 2 2 2 1 2 2 2 2 1 2 2 1 1 2 1 1 4 2 2 2 4 6 4 2 2 4 8 9 8 8 9 11 13 14 14 15 14
10 8 5 2 4 6 6 7 8 10 12 12 11 9 5 1 1 1 1 1 1 1 1 3 2 3 6 2 2 5 4 4 3 5 4 2 5 7 4 0 1 4 4 4 5 2 0 1 1 1 2 2 3 2 1 2 1 1 2 3 3 3 2 1 1 2 3 3 1 3 2 3 5 5 4 3 3 4 5 5 4 5 7 9 10 10 11 11
11 9 6 2 4 5 5 6 8 11 10 10 10 6 2 1 0 1 1 0 1 1 0 3 2 2 5 3 3 5 4 4 5 6 5 2 4 6 3 1 1 2 2 4 4 2 1 2 1 0 1 2 3 2 1 2 3 3 3 3 3 2 2 2 2 1 3 2 3 3 3 4 5 5 3 2 2 3 5 6 6 6 6 5 6 7 7 8
13 11 8 5 4 5 6 7 9 10 9 10 8 3 1 1 0 0 1 1 1 1 1 2 2 3 3 1 3 6 4 3 5 5 4 3 4 5 3 3 1 1 1 2 1 0 2 2 1 0 1 1 4 2 2 3 3 2 2 3 3 2 1 2 1 1 3 0 3 2 4 4 9 10 9 9 8 7 7 7 7 6 4 3 3 4 5 6
15 10 8 9 8 9 11 10 10 9 9 9 4 1 1 1 0 1 1 2 1 2 1 1 1 2 2 1 3 5 2 2 4 4 2 1 2 3 2 3 2 2 1 1 1 1 1 2 0 2 2 0 3 2 0 1 2 3 2 3 2 2 2 2 2 2 3 0 2 1 2 5 8 8 9 11 8 4 5 7 7 5 4 2 2 3 4 6
15 12 10 12 11 11 11 9 9 10 8 5 1 1 1 0 0 1 1 1 1 1 1 1 1 1 1 2 3 4 0 2 3 3 2 1 1 2 1 3 3 2 1 0 0 2 1 1 1 1 0 1 1 3 3 1 1 2 1 2 1 1 2 3 2 2 3 3 1 2 1 5 4 2 2 6 5 4 4 5 6 6 6 4 4 4 5 7
14 14 13 14 12 10 8 7 8 8 5 2 1 1 1 1 1 2 1 1 1 1 1 0 1 0 1 2 1 1 0 1 2 2 3 2 1 2 1 2 4 3 1 1 1 0 2 1 2 2 2 2 1 1 2 1 1 1 1 2 0 1 1 1 1 2 2 4 3 3 3 5 4 7 6 4 6 7 6 5 5 7 7 5 6 7 7 7
10 12 14 14 12 9 6 6 6 3 1 1 2 1 0 1 1 2 1 1 1 1 2 1 1 1 0 0 1 2 1 1 2 1 2 2 0 0 0 1 2 2 2 2 0 0 2 1 3 2 0 2 2 0 0 2 1 1 1 1 2 2 1 1 0 1 0 4 3 2 5 5 5 9 5 1 4 6 6 8 8 8 7 6 7 7 7 7
6 8 11 14 12 7 5 4 3 1 1 2 2 1 0 1 0 1 1 1 1 1 1 2 1 1 0 1 0 0 1 1 1 2 1 1 1 2 2 1 1 1 2 2 1 1 2 2 2 1 1 3 2 1 2 2 2 2 1 3 4 1 0 0 2 1 2 5 3 1 7 6 3 4 2 0 4 4 3 5 7 8 7 8 9 8 7 7
3 4 7 13 12 6 4 2 2 2 2 3 2 1 1 0 1 1 2 2 1 1 1 1 0 0 1 1 1 1 3 1 0 1 0 0 1 3 3 2 2 1 2 2 1 1 2 3 1 1 1 3 1 3 1 3 2 2 1 4 2 2 1 1 2 3 2 5 4 2 5 6 5 5 4 3 3 5 4 3 5 7 8 8 9 8 8 8
1 2 3 10 10 6 4 1 2 3 2 2 1 2 1 1 1 1 2 1 1 2 1 1 0 0 2 1 0 1 2 2 1 1 1 1 1 3 3 1 2 2 0 2 1 2 1 3 0 2 1 1 1 3 3 2 4 2 2 3 1 2 2 1 0 1 2 4 5 3 2 5 6 6 4 5 4 8 9 6 6 6 7 7 7 7 7 7
1 1 1 8 8 5 6 4 3 4 2 1 1 1 1 1 2 2 1 1 0 1 0 2 2 1 2 1 1 1 0 1 1 1 1 1 1 4 4 2 2 3 1 1 1 1 1 2 2 1 1 3 3 2 3 2 3 3 4 3 1 1 0 2 1 1 2 3 5 3 5 9 5 4 4 7 9 9 8 8 7 6 5 6 6 6 6 6
2 1 1 8 6 1 4 6 5 3 2 2 1 1 1 2 3 3 1 1 1 0 1 1 2 1 2 1 1 2 1 1 1 1 2 2 2 2 3 2 3 4 2 1 2 2 2 1 3 1 2 4 2 2 2 2 1 2 4 4 4 3 2 3 3 1 0 3 3 2 6 11 5 4 4 9 9 7 5 6 7 6 7 6 6 7 7 6
1 1 3 9 3 3 4 5 3 2 2 1 1 1 1 1 3 2 2 1 1 1 0 1 1 1 2 1 1 2 2 2 2 2 2 3 3 1 1 2 3 4 1 0 1 0 0 1 3 5 6 3 1 3 1 1 1 1 2 2 2 3 3 5 4 1 2 2 0 1 5 11 3 6 5 6 5 5 4 5 7 7 7 7 7 8 7 8
1 1 4 8 3 4 5 3 0 2 2 1 1 1 1 1 2 1 2 2 2 1 1 1 1 1 1 1 1 3 3 3 3 2 2 2 2 0 2 3 4 3 2 1 1 2 1 1 2 5 5 1 3 2 2 0 1 3 2 2 3 2 2 3 2 1 1 3 3 2 5 10 3 5 4 3 3 4 4 6 8 7 7 8 9 9 8 9
1 1 3 7 3 0 1 2 2 1 2 1 1 2 1 0 1 1 2 3 2 1 2 2 1 1 1 1 1 2 2 2 2 2 1 2 1 3 3 3 3 3 3 1 1 3 2 2 1 5 5 1 1 1 2 1 2 5 3 3 3 3 5 2 1 1 3 8 10 5 8 11 3 5 5 4 4 6 7 8 9 8 9 9 9 9 9 9
1 1 1 6 8 4 1 1 2 3 3 2 3 2 1 1 1 0 1 1 1 1 1 1 0 1 2 1 1 2 2 2 1 1 0 1 2 2 3 3 2 1 1 1 2 2 3 2 2 3 5 4 4 4 2 0 2 3 2 4 4 5 7 3 2 3 5 8 11 9 10 12 7 4 6 6 6 9 12 11 9 8 10 11 10 10 10 9
1 1 1 3 7 6 2 1 2 4 4 3 3 2 2 2 1 0 0 1 2 1 1 1 1 1 2 2 2 3 3 2 0 1 1 3 2 1 2 3 2 1 0 1 2 1 1 2 5 8 8 8 9 6 2 2 3 5 4 6 6 6 7 3 1 5 6 3 7 14 15 16 19 18 16 13 12 13 14 14 11 8 9 10 10 11 11 11
0 1 1 0 1 2 2 2 1 3 2 2 2 2 3 2 1 1 1 1 1 1 0 1 2 3 3 3 3 3 2 2 1 1 3 3 1 1 2 2 2 2 2 1 1 0 1 3 6 10 13 13 14 12 4 2 9 13 9 7 9 8 7 7 10 11 4 3 11 15 13 14 21 22 19 18 17 15 13 13 14 12 10 10 11 12 13 13
0 1 0 1 0 1 2 1 2 3 3 1 1 2 4 3 2 3 2 0 0 2 2 1 3 6 5 4 3 2 2 2 3 3 2 2 1 1 2 2 2 3 4 1 1 0 2 5 2 4 11 14 13 14 11 9 13 14 12 12 11 11 11 13 18 17 8 8 17 15 9 13 19 20 21 19 17 15 14 15 16 15 14 13 13 14 14 14
1 2 1 2 1 1 1 1 3 4 3 2 1 2 4 5 5 3 1 2 2 2 3 3 5 6 6 5 2 2 3 3 2 3 3 2 2 2 2 1 3 3 3 3 1 1 3 3 1 1 9 14 13 14 13 12 13 13 14 16 14 14 16 17 19 19 15 18 24 22 21 22 20 21 23 21 16 13 14 15 16 16 15 14 13 14 14 14
1 2 2 1 3 2 1 1 2 2 2 2 0 2 3 6 6 3 2 4 3 3 4 4 3 3 5 6 5 5 6 4 3 3 4 4 3 3 3 2 3 3 3 3 2 2 2 2 2 2 7 11 6 6 7 8 10 14 17 18 18 18 18 17 17 16 15 20 24 23 22 21 19 20 20 18 15 13 13 15 15 15 14 12 13 14 14 13
2 3 4 3 2 1 1 1 1 1 1 1 2 3 3 6 6 4 4 3 2 4 7 6 3 4 2 4 8 10 7 4 4 4 4 5 3 2 2 2 5 6 5 4 2 2 3 2 1 2 6 7 1 2 5 7 11 16 19 20 19 17 15 14 13 13 14 16 16 13 12 14 14 13 11 12 13 12 13 14 15 14 12 11 12 14 14 13
4 3 3 3 2 1 1 1 1 0 1 1 2 3 3 3 4 5 3 2 0 1 3 4 5 4 2 4 9 9 4 3 5 4 1 3 3 1 1 2 4 5 6 5 2 1 2 3 0 1 5 5 2 3 7 9 11 12 10 10 11 12 12 10 9 12 15 13 8 7 9 11 10 10 12 14 13 12 13 12 12 13 12 11 12 13 14 14
Wind_Direction
61 58 52 51 43 27 358 348 342 323 311 311 306 298 294 284 278 270 264 259 247 240 234 223 200 174 157 142 130 126 104 88 78 62 59 30 354 344 344 346 345 340 338 343 352 16 168 174 186 184 177 168 327 146 148 67 126 195 208 226 237 232 229 202 205 226 331 80 143 157 217 142 126 117 134 102 82 91 86 72 69 69 77 101 115 126 130 135
63 60 53 51 39 14 349 335 325 322 318 317 311 303 294 281 270 257 245 240 234 231 225 211 193 175 163 149 146 144 113 75 70 58 41 6 347 336 334 340 343 338 333 339 347 345 216 198 161 168 178 185 354 169 182 141 230 214 197 232 240 234 108 38 350 325 333 102 130 125 63 111 117 113 164 164 118 115 100 86 90 89 93 109 120 129 132 137
69 64 52 41 25 11 7 3 1 355 346 338 328 315 303 289 272 255 241 229 223 220 213 201 177 170 175 153 164 172 151 40 55 42 7 349 339 330 330 333 338 334 321 327 330 318 262 171 160 174 183 196 122 192 198 169 240 207 218 240 243 49 85 47 8 354 348 133 129 122 95 82 78 24 251 148 124 118 112 97 108 110 108 116 124 130 136 141
74 65 50 38 30 25 31 39 28 15 8 7 8 2 356 331 289 255 237 223 218 213 202 193 173 172 177 156 176 186 192 238 46 358 337 341 335 327 326 326 330 326 308 318 319 307 232 138 153 176 195 201 114 195 198 125 274 169 231 264 18 19 137 43 7 1 355 154 129 130 123 98 81 20 65 149 135 123 128 74 59 101 114 120 118 118 129 132
64 58 52 45 38 39 49 51 28 18 24 37 40 35 24 16 6 272 226 218 212 201 187 170 154 152 160 165 176 172 188 222 24 346 334 337 330 322 321 323 325 317 302 315 320 336 155 147 150 158 197 195 156 194 183 86 348 162 107 25 23 330 286 31 6 9 15 126 122 129 131 111 114 61 31 105 178 126 116 20 344 334 89 115 108 102 110 116
54 53 48 44 41 45 48 42 26 21 33 42 34 28 20 19 7 359 207 206 198 187 171 150 145 157 160 161 157 156 188 272 6 342 334 331 324 320 320 323 325 311 310 316 293 208 172 190 196 179 188 185 177 190 128 92 265 237 115 57 27 5 19 15 6 8 9 128 111 111 112 104 122 93 37 32 42 49 44 360 334 37 81 98 99 104 108 117
54 50 44 42 41 43 42 38 30 22 31 35 21 14 12 18 7 359 57 190 185 171 152 138 130 132 128 124 122 121 120 27 353 334 330 327 322 320 323 332 335 327 324 315 258 222 192 220 208 186 175 167 182 164 98 109 208 257 128 80 42 44 49 27 39 53 65 88 89 102 108 93 111 115 69 57 56 41 36 45 86 96 96 100 101 101 102 113
48 47 43 39 37 38 38 36 29 23 28 27 14 7 10 22 34 24 77 151 163 157 142 132 131 130 123 118 115 91 63 358 334 331 328 328 329 329 342 358 346 352 33 39 347 212 202 224 197 201 187 124 166 142 126 153 138 168 104 100 77 64 68 66 72 77 78 86 99 99 88 63 68 111 96 63 54 49 51 88 108 108 103 102 106 108 112 116
38 41 39 34 33 32 31 29 26 24 23 20 16 13 18 29 55 61 85 129 141 139 131 126 137 145 134 112 151 91 30 334 327 331 331 338 349 354 15 17 13 39 60 49 44 165 208 210 162 200 174 87 133 120 216 228 125 86 98 103 103 91 82 80 77 76 82 92 97 88 84 83 86 95 93 73 55 62 91 117 116 120 111 107 108 111 125 131
26 29 33 29 26 26 25 25 23 23 20 19 20 27 41 50 71 80 95 118 124 126 131 131 140 153 149 108 130 80 7 337 335 336 338 358 2 5 39 35 40 59 68 58 52 41 347 162 135 172 115 96 120 64 351 271 103 103 108 98 96 100 87 78 85 78 88 67 355 122 116 111 136 251 135 105 104 109 135 132 124 131 121 122 123 118 129 136
8 19 28 22 20 21 19 20 21 23 23 22 32 56 71 78 89 98 107 112 114 116 118 120 115 106 98 80 68 54 4 346 347 348 352 18 26 54 63 45 44 60 75 64 51 35 33 96 127 152 94 118 121 75 58 98 118 116 114 99 96 105 82 56 79 56 62 64 17 124 121 127 173 232 138 119 149 162 157 150 143 140 129 138 136 134 148 152
348 7 18 18 18 15 15 18 19 23 23 28 58 83 84 92 99 106 109 113 122 117 108 109 108 95 82 68 60 37 5 356 357 4 13 29 47 58 57 51 51 56 70 76 50 37 68 119 135 88 21 201 146 92 100 122 130 131 135 110 124 135 75 33 35 21 327 112 37 79 152 195 181 169 128 134 164 169 174 165 157 156 150 157 155 161 172 173
357 360 10 16 14 14 16 14 15 23 25 42 78 93 93 95 101 111 112 125 135 121 83 75 123 117 75 66 67 29 13 4 6 26 40 39 50 49 49 55 55 56 69 83 61 50 88 102 96 83 37 28 110 100 125 126 149 155 241 135 158 187 75 29 13 340 99 120 302 285 261 198 151 143 149 159 174 173 185 181 174 174 170 180 180 184 187 188
8 5 10 11 14 19 20 18 24 25 33 66 93 99 98 97 100 109 112 131 147 135 64 77 106 108 82 92 129 32 16 10 15 27 31 36 45 48 53 58 68 69 72 77 66 67 92 93 90 97 49 26 86 159 133 117 177 155 234 187 185 234 117 50 23 340 150 142 287 267 268 242 130 154 165 172 180 184 195 189 189 189 184 193 192 199 200 196
11 6 7 11 17 23 28 37 44 38 60 93 105 104 103 100 101 109 115 128 148 152 109 93 100 107 88 105 153 9 11 16 17 15 15 28 31 29 56 71 81 73 69 74 70 70 77 81 77 76 48 24 161 179 139 121 117 100 242 198 172 265 143 95 52 12 27 154 295 247 264 311 132 160 168 174 186 195 207 198 197 199 195 198 197 205 208 204
22 16 13 16 23 31 42 65 80 75 93 114 114 112 109 103 99 101 104 111 125 140 133 81 68 112 97 78 345 358 9 9 8 10 13 26 25 20 70 88 90 75 65 64 69 63 48 57 71 27 45 169 218 174 154 178 153 104 287 238 126 271 325 118 114 37 9 298 267 226 265 307 123 157 169 178 193 200 212 209 204 206 204 205 204 205 207 210
35 30 25 26 37 44 57 96 109 102 108 113 107 107 108 107 113 109 100 98 95 94 92 53 42 107 79 16 359 356 349 345 359 10 14 22 29 34 85 117 91 58 52 47 45 33 20 37 112 183 57 59 33 233 216 225 204 129 330 283 100 258 304 307 142 45 0 299 256 203 257 284 132 161 180 183 197 207 217 216 209 210 210 211 213 213 212 212
40 36 33 32 41 48 65 121 128 116 110 107 99 94 90 84 92 100 87 99 100 81 78 36 20 125 62 23 1 327 319 330 359 10 11 14 35 40 51 72 2 299 273 42 33 15 1 21 251 144 60 36 33 319 254 324 311 11 339 288 303 227 257 305 15 18 1 322 285 261 255 267 178 175 192 189 199 214 221 222 218 216 215 216 217 220 219 218
31 32 33 31 37 50 72 139 151 139 124 116 105 93 88 81 77 71 55 57 72 35 65 13 360 164 40 12 331 321 311 328 7 12 9 6 8 35 35 36 32 356 300 214 28 13 346 39 65 82 42 14 17 353 340 14 359 348 328 301 314 292 264 331 27 22 359 307 275 263 270 277 252 202 192 193 200 217 227 226 225 222 219 220 220 223 223 223
3 13 24 24 32 51 84 143 168 168 158 152 141 64 101 104 66 53 40 47 63 31 48 24 6 79 54 3 336 344 340 326 18 14 7 5 351 356 18 9 25 55 37 304 19 10 306 74 70 34 17 353 340 327 317 347 338 329 241 236 271 297 321 58 62 36 350 295 264 240 281 281 270 228 187 190 197 215 226 224 224 223 221 221 221 224 223 225
352 353 6 11 20 53 121 143 171 182 185 194 211 339 115 195 51 133 56 51 59 20 51 65 25 52 49 348 346 353 343 240 21 12 8 9 350 314 360 348 244 71 38 309 311 304 294 74 61 1 354 336 333 320 262 224 252 238 217 261 242 290 322 17 87 59 23 307 279 251 287 279 271 222 178 185 199 215 219 219 222 221 221 224 224 226 226 226
2 358 0 4 16 89 137 143 159 182 196 207 208 118 122 165 132 138 134 101 65 14 51 67 50 54 39 6 1 350 326 6 14 11 6 3 8 11 360 18 68 75 21 291 238 155 78 69 27 350 335 271 11 61 223 162 148 219 155 286 294 346 323 304 140 108 23 303 295 331 296 280 269 206 191 196 203 219 219 218 224 221 221 224 223 226 225 224
11 8 1 0 16 132 138 138 148 171 190 199 187 140 129 131 133 131 114 109 92 13 25 38 49 35 13 33 8 352 29 29 352 2 359 356 23 31 6 47 64 63 25 13 52 119 85 57 11 350 230 217 53 65 192 180 129 44 33 336 325 5 333 292 145 250 296 269 296 303 284 274 262 207 214 211 211 225 223 223 230 228 229 229 227 226 223 222
13 4 356 357 39 139 137 131 142 150 160 172 158 143 141 135 134 128 100 93 98 86 30 33 84 35 28 22 359 358 71 50 330 348 356 2 30 342 18 54 59 65 42 36 73 88 71 40 3 328 166 216 348 53 44 278 138 89 38 4 340 342 313 287 300 304 264 186 280 299 282 263 223 212 227 202 209 230 228 229 235 233 234 236 236 233 226 225
7 1 0 1 63 137 140 122 125 137 136 141 140 142 145 139 141 138 108 85 93 89 30 145 138 39 24 349 357 5 131 74 31 344 352 9 5 293 112 50 17 73 42 21 75 86 63 30 308 160 108 154 244 53 27 330 306 147 103 25 327 317 302 286 293 302 281 200 66 329 305 289 159 225 233 173 199 231 227 229 236 233 231 231 235 234 230 228
3 3 7 15 91 143 151 122 126 136 123 126 143 147 148 143 146 145 121 117 87 14 347 54 70 18 7 347 355 339 182 65 27 359 4 13 357 268 128 6 16 86 151 15 77 93 58 48 11 94 115 125 112 75 30 331 319 303 116 68 313 301 290 284 282 285 303 323 39 353 309 306 283 254 222 168 223 241 227 229 237 234 228 227 230 231 228 226
358 2 10 31 75 153 180 163 150 144 115 149 155 151 152 153 143 139 238 278 72 349 349 356 336 5 10 352 342 293 134 341 323 31 18 4 354 248 93 42 79 81 91 216 109 96 31 33 46 61 150 113 72 66 39 331 314 350 97 330 302 290 270 264 264 261 312 324 286 120 306 289 287 279 130 136 258 252 237 234 236 231 227 227 229 229 226 223
352 356 9 36 75 117 146 152 150 140 128 155 159 157 161 166 163 205 269 155 54 359 2 349 330 8 10 354 6 52 82 325 332 30 0 2 17 18 80 58 76 96 101 253 174 91 332 10 31 7 354 38 38 25 8 277 303 33 85 299 297 284 236 215 253 256 339 305 262 121 58 277 275 258 131 149 265 260 248 238 232 226 224 226 229 229 226 223
349 351 7 48 101 106 120 139 136 130 140 149 156 161 166 177 207 228 9 187 333 39 144 315 338 4 347 335 25 45 31 355 21 343 337 15 31 31 74 64 93 107 94 288 85 117 205 19 12 324 357 20 343 333 245 240 320 40 138 187 143 145 145 185 264 287 278 280 287 70 17 297 288 271 183 166 248 254 250 240 230 222 220 223 227 230 227 223
358 3 17 74 126 117 114 111 115 132 141 149 154 157 164 200 215 155 70 238 333 54 203 347 355 326 338 350 59 32 23 27 357 328 348 42 18 34 81 239 227 105 79 61 69 84 154 56 268 304 6 339 308 306 203 229 308 104 182 211 189 178 166 161 273 319 269 257 53 47 354 300 300 284 231 200 227 236 237 237 224 208 215 223 226 231 229 222
19 25 31 80 153 147 121 98 117 137 143 148 150 146 145 59 86 135 80 289 352 15 356 21 14 331 5 38 40 11 18 24 352 355 24 25 1 29 57 296 251 135 95 85 71 50 174 173 194 319 7 309 279 239 160 208 218 208 232 265 260 214 190 205 178 177 260 262 93 56 339 269 259 265 240 225 240 236 238 239 231 216 205 205 219 230 230 224
34 32 37 59 126 141 123 120 128 136 143 146 143 135 161 154 261 163 354 299 304 15 38 34 6 13 20 51 29 1 347 14 14 22 26 12 30 34 12 2 343 258 61 89 59 13 181 165 30 330 157 278 285 249 157 186 229 268 286 311 304 295 280 248 217 192 249 299 104 67 355 268 244 256 266 268 262 247 239 239 244 240 212 175 189 219 225 222
45 40 47 67 95 108 108 122 130 132 142 143 135 63 98 137 150 140 302 305 359 23 33 336 344 354 318 307 27 1 325 6 2 18 28 321 50 60 59 37 344 284 359 43 303 318 161 143 173 208 156 75 302 321 68 208 353 353 339 348 332 342 343 292 285 273 258 56 124 124 353 274 258 264 256 258 272 281 263 255 258 261 253 236 209 208 220 218
54 53 64 76 88 96 101 116 127 133 142 143 143 81 94 154 154 152 256 285 22 28 63 336 320 333 16 43 19 337 310 82 358 350 359 323 29 55 100 59 20 310 278 105 333 339 311 193 159 178 38 359 341 11 5 333 24 27 330 328 4 96 313 287 296 291 292 322 250 158 238 248 254 329 237 239 270 275 255 257 264 262 254 253 244 225 223 220
55 57 66 72 73 80 92 113 127 134 141 126 76 82 119 221 199 198 221 160 163 148 110 21 316 327 56 62 49 349 294 66 19 353 4 16 25 25 20 18 14 353 297 272 143 21 282 261 78 51 332 349 63 61 9 280 163 120 242 275 56 77 278 275 346 330 325 313 262 197 242 238 255 296 283 262 273 258 234 226 239 252 242 234 242 233 223 220
50 52 57 55 53 61 78 112 129 126 111 101 73 64 182 227 201 191 152 86 135 149 154 164 12 20 118 35 84 103 193 298 356 343 41 47 234 202 317 318 1 349 329 334 200 193 296 304 86 83 111 56 28 62 20 313 287 137 229 221 74 34 279 191 41 63 190 275 260 211 263 270 292 291 274 171 289 267 234 227 230 237 233 229 242 239 227 224
43 55 50 38 36 46 66 103 124 69 59 85 81 75 239 262 26 152 140 106 108 120 165 174 12 356 216 249 236 35 280 246 313 315 71 83 208 173 191 208 163 281 326 327 240 213 302 291 119 146 149 84 1 255 106 36 317 273 244 121 110 93 289 213 275 275 225 262 269 232 274 284 292 291 307 40 283 276 233 233 238 237 232 237 246 246 239 234
38 74 53 25 20 30 55 77 37 33 80 70 77 132 232 224 77 115 159 146 129 165 171 175 12 333 229 239 182 310 318 309 344 352 111 229 195 160 180 185 166 212 325 297 257 144 271 282 106 141 186 95 105 240 164 85 39 323 97 115 132 256 229 158 265 289 284 281 278 262 289 280 222 230 280 268 261 304 306 266 246 240 230 235 247 249 247 243
46 101 51 9 7 23 37 31 16 43 85 77 114 162 177 175 124 108 164 154 148 174 160 167 307 307 199 227 248 232 310 328 353 348 189 210 193 168 178 200 173 162 333 276 242 131 218 290 26 142 195 29 162 220 226 137 96 84 139 135 41 306 275 257 333 294 277 287 291 296 308 271 221 195 231 249 272 299 300 286 263 251 235 231 241 244 243 240
60 119 29 354 0 34 40 49 54 44 62 78 161 163 115 171 137 103 207 279 199 181 208 163 167 196 191 211 288 219 303 296 248 290 211 190 225 187 174 194 173 143 102 312 244 188 178 259 275 142 152 255 226 198 236 203 148 164 190 181 150 121 274 276 209 195 263 273 278 286 281 273 252 160 201 262 285 288 286 284 278 272 261 246 239 242 241 236
68 145 351 349 349 43 46 54 53 35 83 89 107 147 156 165 131 117 164 284 325 324 341 161 154 158 174 184 238 197 192 236 211 257 235 197 227 211 162 183 172 147 154 178 195 221 192 230 274 269 236 247 225 83 350 298 240 218 220 207 188 163 181 249 244 193 264 257 257 279 286 279 263 144 220 260 272 276 270 266 270 271 266 259 247 246 244 244
79 158 346 351 10 106 61 62 47 12 113 94 62 126 140 138 125 125 146 151 277 256 139 143 119 137 174 176 176 179 202 228 194 223 241 210 222 239 98 138 144 140 166 183 146 213 289 262 266 264 259 258 68 80 70 302 295 274 263 228 173 160 193 235 255 225 174 209 316 68 277 276 243 145 206 238 243 270 268 242 257 268 266 264 262 256 251 249
88 164 359 2 53 93 60 82 105 15 76 68 350 61 34 95 123 128 165 174 200 201 177 194 171 181 204 187 165 183 205 220 202 202 231 229 226 54 91 137 139 148 186 236 155 159 195 232 251 273 266 191 101 117 129 128 236 234 238 176 174 189 197 236 269 293 209 195 180 161 245 264 262 130 183 223 223 258 254 232 242 258 264 261 257 257 254 251
72 161 6 6 15 68 43 116 150 116 115 148 130 98 41 52 119 135 193 193 190 188 174 166 177 169 126 101 170 182 193 219 222 213 217 225 205 67 86 164 175 179 192 231 154 168 198 220 232 297 301 299 148 171 163 167 204 232 230 161 176 128 92 75 140 121 261 219 201 224 258 257 247 121 168 201 207 234 243 232 226 235 255 260 256 257 254 252
92 146 312 11 30 53 97 154 139 139 146 144 129 128 130 116 100 307 202 157 166 222 170 135 150 121 109 104 142 162 192 238 249 229 46 252 228 77 88 178 203 211 181 357 347 211 224 244 211 267 297 291 284 299 317 222 182 216 194 168 197 160 146 189 208 184 244 220 191 212 251 260 265 245 239 237 234 256 269 265 245 231 246 257 258 259 257 254
144 88 250 1 33 56 71 359 82 124 148 157 133 146 178 139 116 307 236 146 157 165 93 101 139 131 121 170 204 204 209 210 303 318 255 240 236 70 87 174 210 306 95 63 352 278 235 260 228 236 246 249 267 287 41 85 260 255 215 184 196 194 185 195 218 219 221 191 211 228 240 267 281 278 277 280 275 276 282 285 281 259 247 253 255 258 259 257
182 114 115 75 37 59 71 47 65 103 143 184 148 153 170 152 123 142 192 246 162 161 163 106 163 190 177 176 204 220 204 182 198 250 231 233 245 75 116 164 207 251 198 144 346 98 211 255 227 231 243 248 266 283 303 290 268 266 257 217 192 187 187 189 215 227 180 132 256 245 222 246 270 275 279 284 284 285 285 288 293 287 276 273 268 265 264 261
62 131 86 358 75 110 75 89 110 93 95 97 39 136 157 161 180 182 177 154 132 219 218 188 211 217 196 172 184 190 183 203 216 217 217 242 244 172 161 143 141 184 180 171 332 157 241 267 221 218 255 258 265 276 277 269 263 260 258 246 217 190 183 198 223 228 194 211 253 261 246 248 263 273 278 280 283 290 294 294 294 289 283 278 273 270 268 265
73 102 68 351 52 119 28 48 116 110 91 69 67 177 179 187 195 192 131 141 192 222 217 228 233 213 192 185 189 189 196 209 240 238 202 182 199 195 207 190 141 158 185 177 162 185 229 256 132 137 278 273 260 259 263 264 267 267 258 249 238 217 203 208 229 233 222 235 252 264 272 270 270 273 275 279 284 290 292 290 284 279 276 273 270 271 268 266
172 151 142 60 79 97 9 30 112 115 77 47 199 186 187 198 196 185 169 188 190 169 188 229 238 174 182 193 202 224 220 206 253 254 178 172 213 208 219 221 136 145 203 186 156 193 226 264 96 102 290 283 259 248 262 259 266 274 270 254 238 228 220 220 232 235 233 244 252 259 269 273 270 267 268 275 283 285 279 276 274 271 269 268 270 271 269 267
104 124 139 123 95 58 302 78 82 108 137 196 208 170 191 210 195 175 180 205 211 167 184 202 166 123 146 197 218 239 239 214 251 256 181 194 235 204 202 194 134 148 184 187 164 171 200 259 80 95 290 290 59 41 302 288 271 266 268 261 239 221 217 218 222 222 219 231 247 255 261 263 263 268 272 269 266 266 266 267 271 272 269 266 267 269 268 265
106 97 122 107 88 316 290 104 97 250 189 210 181 160 196 224 186 180 190 190 141 174 198 187 153 142 169 204 225 248 267 244 266 287 226 230 267 262 217 181 150 155 166 170 181 152 188 239 236 76 285 281 42 359 313 308 292 269 261 263 239 209 205 213 224 226 217 216 231 239 238 252 272 290 291 281 272 267 266 265 269 275 278 273 267 266 267 268